Regional Weather Roundup
Issued by NWS

Home | Current Version | Previous Version | Text Only | Print | Product List | Glossary On
Versions: 1 2 3 4 5 6 7 8 9 10 11 12 13 14 15 16 17 18 19 20 21 22 23 24 25 26 27 28 29 30 31 32 33 34 35 36 37 38 39 40 41 42 43 44 45 46 47 48 49 50
988
ASUS45 KPSR 250010
RWRAZ

ARIZONA HOURLY REGIONAL WEATHER ROUNDUP
NATIONAL WEATHER SERVICE PHOENIX AZ
500 PM MST SUN JUL 24 2016

NOTE: FAIR INDICATES FEW OR NO CLOUDS BELOW 12,000 FEET WITH NO
SIGNIFICANT WEATHER AND/OR OBSTRUCTIONS TO VISIBILITY.

AZZ001>003-036-250100-
NORTHWEST ARIZONA

CITY           SKY/WX    TMP DP  RH WIND       PRES   REMARKS
BULLHEAD CITY  SUNNY    109  54  16 S15G21    29.72F HX 108
KINGMAN        SUNNY     98  50  19 SW21G29   29.99F
6HR MIN TEMP:  95; 6HR MAX TEMP:  99;

$$

AZZ004>008-015-016-018-250100-
NORTH CENTRAL ARIZONA

CITY           SKY/WX    TMP DP  RH WIND       PRES   REMARKS
GRAND CANYON   PTSUNNY   90  39  16 VRB6      30.24R
6HR MIN TEMP:  87; 6HR MAX TEMP:  94;

WILLIAMS       MOSUNNY   88  43  20 W8G18     30.32S
PRESCOTT       SUNNY     93  48  21 W12G21    30.12F
6HR MIN TEMP:  87; 6HR MAX TEMP:  93;

FLAGSTAFF      CLOUDY    80  43  26 W3        30.27F
6HR MIN TEMP:  76; 6HR MAX TEMP:  85;

PAYSON         PTSUNNY   93  48  21 S12G24    30.14S
PAGE           PTSUNNY   96  36  12 SW9       30.00R
6HR MIN TEMP:  96; 6HR MAX TEMP: 103;

$$

AZZ009>014-017-250100-
NORTHEAST ARIZONA

CITY           SKY/WX    TMP DP  RH WIND       PRES   REMARKS
WINSLOW        PTSUNNY   91  48  22 S21       30.09R
6HR MIN TEMP:  91; 6HR MAX TEMP:  99;

SAINT JOHNS    PTSUNNY   90  41  18 MISG      30.14R
6HR MIN TEMP:  90; 6HR MAX TEMP:  97;

WINDOW ROCK    CLOUDY    86  45  23 VRB5      30.23F
6HR MIN TEMP:  81; 6HR MAX TEMP:  89; 6HR PCP: TRACE;

SHOW LOW       CLOUDY    82  37  20 W13       30.24R
$$

AZZ023-250100-
GREATER PHOENIX AREA

CITY           SKY/WX    TMP DP  RH WIND       PRES   REMARKS
PHOENIX        PTSUNNY  106  57  20 W12G23    29.76F HX 105
6HR MIN TEMP:  98; 6HR MAX TEMP: 107;

BUCKEYE        MOSUNNY  104  54  18 W7        29.79F HX 102
GLENDALE       MOSUNNY  108  55  18 SW8G17    29.78F HX 106
LUKE AFB       SUNNY    107  56  18 W10       29.76F HX 106
6HR MIN TEMP:  98; 6HR MAX TEMP: 107;

DEER VALLEY    SUNNY    106  56  19 W15       29.79F HX 105
6HR MIN TEMP:  95; 6HR MAX TEMP: 106;

SCOTTSDALE     SUNNY    105  56  19 W9G22     29.81F HX 104
6HR MIN TEMP:  96; 6HR MAX TEMP: 106;

CHANDLER       MOSUNNY  106  55  18 W9G16     29.79F HX 105
$$

AZZ027-028-250100-
SOUTHWEST MARICOPA COUNTY AND PINAL COUNTY

CITY           SKY/WX    TMP DP  RH WIND       PRES   REMARKS
CASA GRANDE    SUNNY    106  55  18 W14G21    29.83F HX 105
6HR MIN TEMP:  97; 6HR MAX TEMP: 106;

GILA BEND      FAIR     108  54  16 NW10      29.76F HX 106
6HR MIN TEMP: 100; 6HR MAX TEMP: 109;

$$

AZZ503-504-507>509-250100-
SOUTHEAST ARIZONA

CITY           SKY/WX    TMP DP  RH WIND       PRES   REMARKS
TUCSON         SUNNY    101  56  22 NW17G25   29.91F HX 100
6HR MIN TEMP:  94; 6HR MAX TEMP: 103;

DAVIS-MONTHAN  SUNNY    100  56  23 N18G24    29.89F
6HR MIN TEMP:  92; 6HR MAX TEMP: 100;

RYAN FIELD     SUNNY    100  55  22 NW16G24   29.89F
NOGALES        SUNNY     93  57  29 NW9       29.99F
6HR MIN TEMP:  87; 6HR MAX TEMP:  96;

SIERRA VISTA   MOSUNNY   93  54  26 NW18      30.07F
6HR MIN TEMP:  87; 6HR MAX TEMP:  94;

DOUGLAS        SUNNY     96  58  27 NW15      29.98F
6HR MIN TEMP:  87; 6HR MAX TEMP:  97;

SAFFORD        MOSUNNY  103  55  20 W18G28    29.87S HX 101
6HR MIN TEMP:  95; 6HR MAX TEMP: 103;

$$

AZZ020-021-025-026-031-250100-
SOUTHWEST ARIZONA

CITY           SKY/WX    TMP DP  RH WIND       PRES   REMARKS
YUMA           SUNNY    102  67  31 S24       29.76S HX 107
6HR MIN TEMP: 101; 6HR MAX TEMP: 108;

$$

CAZ031-033-041-043-047-048-061-250100-
SOUTHERN CALIFORNIA

CITY           SKY/WX    TMP DP  RH WIND       PRES   REMARKS
DOWNTOWN L.A.  SUNNY     88  64  44 VRB3      29.86F
6HR MIN TEMP:  82; 6HR MAX TEMP:  92;

L.A. AIRPORT   MOSUNNY   79  66  64 W10       29.88F
6HR MIN TEMP:  79; 6HR MAX TEMP:  86;

SAN DIEGO      PTSUNNY   76  63  64 W7        29.90F
6HR MIN TEMP:  70; 6HR MAX TEMP:  76;

BURBANK        SUNNY     93  48  21 SE9       29.88F
6HR MIN TEMP:  84; 6HR MAX TEMP:  94;

ONTARIO        MOSUNNY   95  46  18 W16G23    29.88F
6HR MIN TEMP:  90; 6HR MAX TEMP:  97;

RIVERSIDE      SUNNY     96  46  18 W14G20    29.87F
6HR MIN TEMP:  90; 6HR MAX TEMP:  98;

PALM SPRINGS   SUNNY    108  62  22 SE10      29.75F HX 110
6HR MIN TEMP:  93; 6HR MAX TEMP: 108;

EL CENTRO NAS  PTSUNNY  108  61  21 SE10G20   29.72F HX 110
6HR MIN TEMP:  98; 6HR MAX TEMP: 108;

IMPERIAL       PTSUNNY  109  68  26 SE21      29.71F HX 116
6HR MIN TEMP: 100; 6HR MAX TEMP: 111;

BLYTHE         MOSUNNY  109  59  19 S18       29.73F HX 110
6HR MIN TEMP:  98; 6HR MAX TEMP: 110;

NEEDLES        CLOUDY   111  57  17 SW10G25   29.75F HX 111
6HR MIN TEMP: 102; 6HR MAX TEMP: 112;

$$

NVZ020-UTZ003-250100-
SOUTHERN NEVADA-UTAH

CITY           SKY/WX    TMP DP  RH WIND       PRES   REMARKS
LAS VEGAS      SUNNY    109  27   6 SW14G21   29.76F HX 101
6HR MIN TEMP: 104; 6HR MAX TEMP: 112;

SALT LAKE CITY MOSUNNY   96  29   9 N7        30.03F
6HR MIN TEMP:  87; 6HR MAX TEMP:  97;

$$

NMZ009-TXZ055-250100-
NEW MEXICO-WEST TEXAS

CITY           SKY/WX    TMP DP  RH WIND       PRES   REMARKS
ALBUQUERQUE    TSTM      86  54  33 E9        30.12R
6HR MIN TEMP:  86; 6HR MAX TEMP:  99; 6HR PCP:  0.01;

EL PASO        MOSUNNY  105  43  12 SW6       29.89F HX 100
6HR MIN TEMP:  95; 6HR MAX TEMP: 106;

$$


........................KEY........................
SKY/WX - SKY CONDITION/WEATHER
TMP    - TEMPERATURE IN FAHRENHEIT
DP     - DEW POINT IN FAHRENHEIT
RH     - RELATIVE HUMIDITY IN PERCENT
WIND   - DIRECTION AND SPEED IN MILES PER HOUR (MPH)
VRB    - VARIABLE WIND DIRECTION
PRES   - MEAN SEA LEVEL PRESSURE IN INCHES OF MERCURY
         F - FALLING PRESSURE   R - RISING PRESSURE
         S - STEADY PRESSURE
VSB    - VISIBILITY IN MILES
HX     - HEAT INDEX IN FAHRENHEIT
WCI    - WIND CHILL INDEX IN FAHRENHEIT
TC     - TEMPERATURE IN CELSIUS WHICH IS ALSO KNOWN AS
         TEMPERATURE IN CENTIGRADE
AFB    - AIR FORCE BASE
         LUKE AFB IS LUKE AIR FORCE BASE
         DAVIS-MONTHAN IS DAVIS-MONTHAN AIR FORCE BASE
NAS    - NAVAL AIR STATION
         EL CENTRO NAS IS EL CENTRO NAVAL AIR STATION
N/A    - NOT AVAILABLE





USA.gov is the U.S. government's official web portal to all federal, state and local government web resources and services.